Location: Newark
(48.8604°N, 2.3376°E)
Time: 14:23:42
(UTC+00:00)

N. Korean satellite - Pass Details

Date: 05 October 2021
Orbit: 450 x 495 km, 97.3° (Epoch: 19 October)

Event Time Altitude Azimuth Distance (km) Brightness Sun altitude
Rises 05:04:25 0° 15° (NNE) 2,560 10.5 -9.3°
Reaches altitude 10° 05:06:30 10° 18° (NNE) 1,682 9.6 -9.0°
Maximum altitude 05:10:06 66° 101° (ESE) 542 7.1 -8.4°
Drops below altitude 10° 05:13:42 10° 184° (S) 1,685 9.2 -7.8°
Sets 05:15:48 0° 188° (S) 2,566 10.1 -7.5°
